Regional Weather Roundup
Issued by NWS

Home | Current Version | Previous Version | Text Only | Print | Product List | Glossary Off
Versions: 1 2 3 4 5 6 7 8 9 10 11 12 13 14 15 16 17 18 19 20 21 22 23 24 25 26 27 28 29 30 31 32 33 34 35 36 37 38 39 40 41 42 43 44 45 46 47 48 49 50

334
ASUS43 KLSX 250307
RWRMO

WEATHER SUMMARY FOR MISSOURI
NATIONAL WEATHER SERVICE SPRINGFIELD MO
1000 PM CDT THU MAY 24 2018

NOTE: "FAIR" INDICATES FEW OR NO CLOUDS BELOW 12,000 FEET WITH NO
       SIGNIFICANT WEATHER AND/OR OBSTRUCTIONS TO VISIBILITY.
       CURRENT SKY AND/OR WEATHER CONDITIONS ARE NOT AVAILABLE FOR
       CHILLICOTHE AND FARMINGTON.

MOZ001>031-035>038-043-044-053-054-250400-
...NORTHERN AND WESTERN MISSOURI...

CITY           SKY/WX    TMP DP  RH WIND       PRES   REMARKS
KANSAS CTY INT LGT RAIN  68  65  90 SE6       30.00R
KANSAS C DTWN  LGT RAIN  72  65  78 CALM      29.99S
LEE`S SUMMIT   CLOUDY    69  65  86 S13G24    30.01F
ST JOSEPH      CLOUDY    72  66  81 S7        29.98S
CHILLICOTHE      N/A     76  67  73 S3        30.00R
KIRKSVILLE     PTCLDY    72  67  84 S7        30.02S

$$
MOZ066>068-077>081-088>096-101>105-250400-
...SOUTHWEST MISSOURI...

CITY           SKY/WX    TMP DP  RH WIND       PRES   REMARKS
SPRINGFIELD    MOCLDY    74  67  78 S6        30.05S
JOPLIN         PTCLDY    74  67  78 SE8       30.03S
BRANSON        MOCLDY    68  64  88 CALM      30.08S

$$
MOZ032>034-039>042-045>050-055>058-069>072-250400-
...CENTRAL MISSOURI...

CITY           SKY/WX    TMP DP  RH WIND       PRES   REMARKS
COLUMBIA       CLOUDY    73  67  81 SE5       30.02R
JEFFERSON CITY CLOUDY    75  68  78 CALM      30.01R
ROLLA          MOCLDY    72  62  71 S5        30.05S
SEDALIA        CLOUDY    75  71  87 SW12      30.04R
WHITEMAN AFB   MOCLDY    73  64  75 SW6       29.99S
WARRENSBURG    CLOUDY    68  63  83 S7        30.02F
OSAGE BEACH    CLOUDY    75  68  78 S3        30.05R HAZE

$$
MOZ051-052-059>065-250400-
...EAST CENTRAL MISSOURI...

CITY           SKY/WX    TMP DP  RH WIND       PRES   REMARKS
ST LOUIS INTL  PTCLDY    81  60  48 S6        30.03S
SPIRIT OF STL  CLEAR     73  66  78 CALM      30.02R
ST CHARLES     CLEAR     75  65  70 E3        30.01S

$$
MOZ072>076-082>087-097>100-106>115-250400-
...SOUTH CENTRAL AND SOUTHEAST MISSOURI...

CITY           SKY/WX    TMP DP  RH WIND       PRES   REMARKS
CAPE GIRARDEAU FAIR      74  66  76 E3        30.03R
FARMINGTON     PTCLDY    72  65  78 CALM      30.06R
POPLAR BLUFF   FAIR      76  72  87 CALM      30.03R
WEST PLAINS    PTCLDY    72  68  87 CALM      30.09R

$$




USA.gov is the U.S. government's official web portal to all federal, state and local government web resources and services.